Regional Weather Roundup
Issued by NWS Albany, NY

Current Version |  Previous Version |  Text Only |  Print | Product List |  Glossary On
Versions: 1 2 3 4 5 6 7 8 9 10 11 12 13 14 15 16 17 18 19 20 21 22 23 24 25 26 27
423
ASUS41 KALY 130910
RWRALY

NEW YORK STATE HOURLY WEATHER ROUNDUP
NATIONAL WEATHER SERVICE ALBANY NY
500 AM EDT THU JUN 13 2024

NOTE: "FAIR" INDICATES FEW OR NO CLOUDS BELOW 12,000 FEET WITH NO
SIGNIFICANT WEATHER AND/OR NO OBSTRUCTIONS TO VISIBILITY.

NYZ032-033-038>043-046>054-057>066-NYZ062>081-082-084-131000-
EAST


CITY           SKY/WX    TMP DP  RH WIND       PRES   REMARKS
ALBANY         PTCLDY    52  50  93 CALM      30.00R
GLENS FALLS    CLEAR     47  47 100 CALM      29.99S
POUGHKEEPSIE   CLEAR     51  49  92 CALM      30.00R
NEWBURGH       CLEAR     54  52  94 CALM      30.01R
MONTGOMERY     CLEAR     49  48  97 CALM      30.00R
WHITE PLAINS   CLEAR     58  56  93 CALM      30.01R
ISLIP          CLEAR     59  58  96 CALM      30.00S
NEW YORK CITY  PTCLDY    66  58  75 CALM      30.00R
CENTRAL PARK   CLEAR     66  59  78 CALM      30.03S
$$

NYZ005>009-017-018-044>046-055-056-131000-
CENTRAL


CITY           SKY/WX    TMP DP  RH WIND       PRES   REMARKS
FULTON         PTCLDY    55  52  89 VRB3      29.94F
SYRACUSE       PTCLDY    54  50  86 E5        29.96S
ROME           PTCLDY    50  48  93 SE6       29.99S
ELMIRA         PTCLDY    50  49  96 CALM      30.00R FOG
BINGHAMTON     CLEAR     53  51  93 S3        30.00S
$$

NYZ026>034-041>043-087-131000-
NORTH


CITY           SKY/WX    TMP DP  RH WIND       PRES   REMARKS
WATERTOWN      CLEAR     58  51  78 CALM      29.92S
FORT DRUM      CLEAR     54  50  88 SE10      29.91S
OGDENSBURG     CLEAR     52  50  93 S3        29.90
MASSENA        PTCLDY    47  46  97 CALM      29.93R
SARANAC LAKE   FOG       38  36  92 CALM      29.97S VSB 1/4
PLATTSBURGH    CLEAR     49  48  97 CALM      29.94F
$$

NYZ001>004-010>016-019>021-085-131000-
WEST


CITY           SKY/WX    TMP DP  RH WIND       PRES   REMARKS
NIAGARA FALLS  CLEAR     64  52  64 S9        29.89F
BUFFALO        PTCLDY    62  51  67 S6        29.91F
DUNKIRK        PTCLDY    69  51  52 S13       29.93S
JAMESTOWN      PTCLDY    56  52  86 S8        29.99F
WELLSVILLE     PTCLDY    60  49  66 SW8       30.03S
ROCHESTER      MOCLDY    58  51  78 SW9       29.92F
PENN YAN       PTCLDY    57  53  86 SW12      29.97R
$$

             KEY
       WCI = WIND CHILL INDEX
       VSB = VISIBILITY
       HX  = HEAT INDEX
$$